[[{"header":{"parameterUnit":"m.s-1","parameterCategory":1,"la1":30.2991,"la2":30.254,"lo1":-89.0895,"lo2":-89.0444,"dy":0.0017,"dx":0.0017,"nx":28,"ny":28,"refTime":"2025-12-23T09:00:00:Z","depth":0,"parameterNumber":2,"parameterNumberName":"U-component_of_WINDS"},"data":[0,0,0,0,0,0,0,0,0,0,0,0,0,0,0,0,0,0,0,0,0,0,0,0,0,0,0,0,0,0,0,0,0,0,0,0,0,0,0,0,0,0,0,0,0,0,0,0,0,0,0,0,0,0,0,0,0,0,-1.2021,-1.2021,0,-1.1983,-1.1983,-1.1982,-1.1905,-1.1903,-1.1901,-1.19,-1.1864,-1.1864,-1.1865,0,0,0,0,0,0,0,0,0,0,0,0,0,-1.2028,-1.2028,-1.2021,-1.2021,-1.202,-1.1983,-1.1983,-1.1982,-1.1905,-1.1903,-1.1901,-1.1899,-1.1863,-1.1864,-1.1865,0,0,0,0,0,0,0,0,0,0,0,0,0,-1.2011,-1.2028,-1.2021,-1.1977,-1.1973,-1.1983,-1.1983,-1.1982,-1.1905,-1.1903,-1.1901,-1.1898,-1.1863,-1.1864,-1.1865,-1.1916,0,0,-1.1867,-1.1867,0,0,0,0,0,0,0,0,-1.2012,-1.2011,-1.1984,-1.198,-1.1975,-1.1946,-1.1972,-1.196,-1.1906,-1.1931,-1.19,-1.1897,-1.1893,-1.1891,-1.1889,-1.1914,-1.1913,-1.1867,-1.1867,-1.1868,-1.1868,0,0,0,0,0,0,0,-1.2014,-1.2012,-1.2006,-1.1984,-1.1978,-1.196,-1.1955,-1.1969,-1.1926,-1.1929,-1.1923,-1.1919,-1.189,-1.1889,-1.1888,-1.1912,-1.1867,-1.1868,-1.1868,-1.1868,-1.1978,-1.198,0,0,0,0,0,0,-1.2021,-1.2014,-1.2007,-1.2005,-1.1988,-1.1961,-1.1956,-1.1958,-1.1925,-1.1918,-1.1921,-1.1916,-1.1889,-1.1887,-1.1886,-1.1944,-1.1868,-1.1868,-1.1869,-1.1975,-1.1978,-1.1981,0,0,0,0,0,0,-1.2021,-1.2021,-1.2009,-1.2008,-1.2005,-1.1964,-1.1967,-1.1958,-1.1957,-1.192,-1.1912,-1.1928,-1.1887,-1.1885,-1.1909,-1.1942,-1.1869,-1.1869,-1.1972,-1.1976,-1.198,-1.2061,0,0,0,0,0,0,-1.2022,-1.2022,-1.204,-1.2009,-1.2005,-1.2032,-1.1969,-1.1959,-1.1958,-1.195,-1.1924,-1.1917,-1.1885,-1.1908,-1.191,-1.1942,-1.187,-1.1969,-1.1974,-1.1978,-1.2055,-1.2067,-1.2077,0,0,0,0,0,-1.2022,-1.2065,-1.2042,-1.2041,-1.2027,-1.2034,-1.2032,-1.1993,-1.1961,-1.198,-1.1956,-1.1918,-1.1938,-1.1912,-1.1912,-1.1945,-1.1967,-1.1973,-1.1978,-1.205,-1.2064,-1.2076,0,0,0,0,0,0,-1.2102,-1.206,-1.2034,-1.2067,-1.2055,-1.2021,-1.2043,-1.201,-1.2007,-1.2,-1.1953,-1.1947,-1.1978,-1.1964,-1.1935,-1.1993,-1.1947,-1.1953,-1.2001,-1.2014,-1.2025,-1.2028,-1.1871,0,0,0,0,0,-1.2124,-1.2132,-1.2095,-1.2128,-1.2123,-1.2084,-1.2086,-1.2057,-1.2042,-1.2037,-1.2015,-1.2003,-1.2006,-1.2009,-1.2011,-1.2053,-1.2046,-1.2075,-1.2086,-1.2096,-1.2101,-1.2122,-1.2135,-1.1999,-1.1999,-1.1999,0,0,-1.2168,-1.2146,-1.2154,-1.2143,-1.213,-1.214,-1.208,-1.2093,-1.21,-1.2039,-1.206,-1.2044,-1.2027,-1.206,-1.2073,-1.2049,-1.2137,-1.2103,-1.211,-1.2111,-1.2129,-1.2142,-1.2154,-1.2003,-1.2002,-1.2002,0,0,-1.2254,-1.2238,-1.2264,-1.2252,-1.2233,-1.2207,-1.2213,-1.2184,-1.2171,-1.2191,-1.2145,-1.2153,-1.216,-1.215,-1.2146,-1.2229,-1.2194,-1.223,-1.2287,-1.2309,-1.2319,-1.2329,-1.2358,-1.2369,-1.2236,-1.2237,-1.2237,0,-1.2312,-1.2324,-1.2282,-1.2298,-1.2294,-1.2239,-1.2265,-1.2256,-1.2238,-1.2238,-1.2211,-1.2218,-1.2203,-1.2233,-1.2253,-1.2252,-1.2258,-1.2233,-1.2321,-1.233,-1.2338,-1.2365,-1.2376,-1.2241,-1.2241,-1.224,-1.224,0,-1.2396,-1.2406,-1.2429,-1.2413,-1.2412,-1.2433,-1.2395,-1.2399,-1.2371,-1.2349,-1.237,-1.235,-1.2346,-1.2351,-1.2324,-1.2377,-1.2363,-1.2329,-1.2282,-1.2356,-1.2381,-1.2391,-1.2248,-1.2246,-1.2245,-1.2243,0,0,-1.2531,-1.2491,-1.25,-1.2492,-1.2467,-1.2473,-1.2492,-1.2488,-1.2493,-1.2483,-1.2498,-1.2505,-1.2474,-1.2469,-1.2441,-1.2459,-1.2526,-1.2423,-1.2422,-1.2443,-1.2583,-1.2608,-1.2621,-1.2503,-1.2505,-1.2506,-1.2585,0,-1.2611,-1.264,-1.2602,-1.264,-1.2648,-1.2596,-1.2612,-1.2599,-1.2578,-1.2583,-1.256,-1.2566,-1.2524,-1.2521,-1.2537,-1.2514,-1.2553,-1.2508,-1.2516,-1.2517,-1.2522,-1.2634,-1.2661,-1.2736,-1.2594,-1.2596,-1.2597,0,-1.2708,-1.2702,-1.274,-1.2712,-1.2714,-1.2729,-1.2722,-1.2727,-1.2712,-1.2695,-1.269,-1.2656,-1.2673,-1.2627,-1.265,-1.262,-1.2622,-1.2611,-1.2613,-1.2612,-1.2561,-1.2636,-1.2759,-1.277,-1.2612,-1.2611,-1.261,0,-1.2802,-1.2803,-1.2826,-1.2821,-1.2789,-1.2801,-1.2789,-1.277,-1.277,-1.2765,-1.2764,-1.2761,-1.2759,-1.2757,-1.2723,-1.2693,-1.2751,-1.2702,-1.2738,-1.2739,-1.2752,-1.2752,-1.2877,-1.2754,-1.2754,-1.2753,-1.2753,0,-1.2894,-1.292,-1.2868,-1.2882,-1.2909,-1.2866,-1.2894,-1.2877,-1.2861,-1.2871,-1.2826,-1.2837,-1.2791,-1.2797,-1.2771,-1.2794,-1.2793,-1.2781,-1.2774,-1.2785,-1.2786,-1.2785,-1.2778,-1.2756,-1.2756,-1.2755,-1.2755,0,-1.3004,-1.297,-1.2991,-1.296,-1.2952,-1.2974,-1.2947,-1.2959,-1.2935,-1.2949,-1.295,-1.2913,-1.2918,-1.2884,-1.2882,-1.2864,-1.29,-1.2884,-1.2905,-1.29,-1.2938,-1.2935,-1.3066,-1.3081,-1.2949,-1.295,-1.2952,0,-1.3065,-1.3083,-1.3053,-1.3056,-1.3046,-1.3052,-1.3051,-1.301,-1.3012,-1.2995,-1.3009,-1.301,-1.3009,-1.3019,-1.2993,-1.2991,-1.2975,-1.3021,-1.2974,-1.2985,-1.2975,-1.2974,-1.2975,-1.303,-1.3032,-1.3033,-1.3034,0,-1.3177,-1.3159,-1.316,-1.3155,-1.3155,-1.3149,-1.314,-1.3146,-1.3101,-1.3105,-1.3109,-1.3108,-1.3106,-1.3108,-1.3101,-1.3089,-1.3055,-1.3049,-1.3057,-1.3069,-1.308,-1.3074,-1.2931,-1.3046,-1.3045,-1.3044,-1.3044,-1.3043,-1.3264,-1.3277,-1.3259,-1.3261,-1.325,-1.3242,-1.3252,-1.323,-1.3232,-1.3227,-1.3203,-1.3211,-1.3195,-1.3183,-1.3174,-1.318,-1.3158,-1.317,-1.3173,-1.3176,-1.3183,-1.308,-1.3179,-1.3179,-1.3178,-1.3178,-1.3178,0,-1.3373,-1.3359,-1.3361,-1.335,-1.3352,-1.3318,-1.3307,-1.3311,-1.3319,-1.3306,-1.3306,-1.331,-1.3312,-1.3286,-1.3284,-1.3294,-1.3278,-1.3295,-1.3293,-1.3291,-1.3203,-1.3196,-1.3307,-1.3307,-1.3307,-1.3307,-1.3307,-1.3307,-1.343,-1.3452,-1.3432,-1.3448,-1.3433,-1.344,-1.3436,-1.343,-1.3419,-1.3426,-1.3427,-1.341,-1.3392,-1.3389,-1.3389,-1.3381,-1.3382,-1.3404,-1.3392,-1.331,-1.3297,-1.3285,-1.3278,-1.3405,-1.3405,-1.3479,-1.3479,-1.348]},{"header":{"parameterUnit":"m.s-1","parameterCategory":1,"la1":30.2991,"la2":30.254,"lo1":-89.0895,"lo2":-89.0444,"dy":0.0017,"dx":0.0017,"nx":28,"ny":28,"refTime":"2025-12-23T09:00:00:Z","depth":0,"parameterNumber":3,"parameterNumberName":"V-component_of_WINDS"},"data":[0,0,0,0,0,0,0,0,0,0,0,0,0,0,0,0,0,0,0,0,0,0,0,0,0,0,0,0,0,0,0,0,0,0,0,0,0,0,0,0,0,0,0,0,0,0,0,0,0,0,0,0,0,0,0,0,0,0,-0.3133,-0.3133,0,-0.3101,-0.31,-0.31,-0.3058,-0.3058,-0.3057,-0.3056,-0.3025,-0.3025,-0.3024,0,0,0,0,0,0,0,0,0,0,0,0,0,-0.316,-0.316,-0.3133,-0.3133,-0.3133,-0.3101,-0.31,-0.31,-0.3058,-0.3058,-0.3057,-0.3056,-0.3025,-0.3025,-0.3024,0,0,0,0,0,0,0,0,0,0,0,0,0,-0.314,-0.316,-0.3133,-0.3108,-0.3105,-0.3101,-0.31,-0.31,-0.3059,-0.3058,-0.3057,-0.3056,-0.3025,-0.3025,-0.3024,-0.3043,0,0,-0.3023,-0.3023,0,0,0,0,0,0,0,0,-0.3141,-0.3139,-0.3112,-0.311,-0.3107,-0.3083,-0.3098,-0.3081,-0.3059,-0.3076,-0.3056,-0.3055,-0.3045,-0.3043,-0.3039,-0.3041,-0.304,-0.3023,-0.3023,-0.3023,-0.3023,0,0,0,0,0,0,0,-0.3143,-0.314,-0.3121,-0.3112,-0.3109,-0.3098,-0.3094,-0.3095,-0.3067,-0.3075,-0.3072,-0.3068,-0.3043,-0.304,-0.3038,-0.304,-0.3023,-0.3023,-0.3023,-0.3023,-0.3054,-0.3055,0,0,0,0,0,0,-0.3148,-0.3142,-0.3122,-0.312,-0.3122,-0.3099,-0.3094,-0.3091,-0.3067,-0.3062,-0.3069,-0.3067,-0.3041,-0.3039,-0.3037,-0.3056,-0.3023,-0.3023,-0.3023,-0.3053,-0.3054,-0.3055,0,0,0,0,0,0,-0.3148,-0.3146,-0.3123,-0.313,-0.3126,-0.3099,-0.3096,-0.3091,-0.3087,-0.3063,-0.3057,-0.307,-0.304,-0.3037,-0.3041,-0.3054,-0.3023,-0.3022,-0.3052,-0.3053,-0.3055,-0.3095,0,0,0,0,0,0,-0.3149,-0.3147,-0.3154,-0.313,-0.3126,-0.3128,-0.3097,-0.3091,-0.3087,-0.3083,-0.3062,-0.3058,-0.3039,-0.3042,-0.3041,-0.3053,-0.3022,-0.305,-0.3052,-0.3054,-0.3092,-0.3097,-0.3102,0,0,0,0,0,-0.315,-0.3167,-0.3154,-0.3152,-0.3134,-0.3129,-0.3126,-0.3103,-0.3088,-0.3095,-0.3078,-0.3059,-0.3053,-0.3043,-0.3041,-0.3054,-0.3049,-0.3052,-0.3054,-0.309,-0.3096,-0.3102,0,0,0,0,0,0,-0.3194,-0.3164,-0.3149,-0.3158,-0.3146,-0.3122,-0.3129,-0.3111,-0.3103,-0.31,-0.3073,-0.3068,-0.3075,-0.3065,-0.3054,-0.3069,-0.3048,-0.305,-0.3076,-0.3082,-0.3087,-0.3089,-0.3022,0,0,0,0,0,-0.3204,-0.3202,-0.3176,-0.3187,-0.3181,-0.3156,-0.3154,-0.3137,-0.3123,-0.3118,-0.3102,-0.309,-0.3085,-0.3083,-0.3078,-0.309,-0.3085,-0.3098,-0.3103,-0.3107,-0.3109,-0.3114,-0.3119,-0.3063,-0.3063,-0.3062,0,0,-0.3226,-0.3209,-0.321,-0.3195,-0.3184,-0.3182,-0.3153,-0.3153,-0.3151,-0.3118,-0.3121,-0.3108,-0.3093,-0.3101,-0.3104,-0.3093,-0.3123,-0.311,-0.3114,-0.3113,-0.3117,-0.3122,-0.3127,-0.3064,-0.3064,-0.3064,0,0,-0.3265,-0.3253,-0.3259,-0.3248,-0.3231,-0.3214,-0.3216,-0.3193,-0.3184,-0.3185,-0.316,-0.3158,-0.3151,-0.3141,-0.3135,-0.3168,-0.3149,-0.3167,-0.3193,-0.3198,-0.3202,-0.3206,-0.3217,-0.3221,-0.3169,-0.3169,-0.3169,0,-0.3295,-0.3291,-0.3265,-0.3267,-0.326,-0.3229,-0.3236,-0.3226,-0.3209,-0.3205,-0.3193,-0.3182,-0.317,-0.3174,-0.3182,-0.3178,-0.3179,-0.3169,-0.3203,-0.3207,-0.321,-0.322,-0.3225,-0.3172,-0.3171,-0.3171,-0.3171,0,-0.3328,-0.3326,-0.3334,-0.3316,-0.331,-0.3315,-0.3289,-0.3287,-0.327,-0.3254,-0.3256,-0.324,-0.323,-0.323,-0.3214,-0.3232,-0.3225,-0.3208,-0.3186,-0.3218,-0.3227,-0.3231,-0.3175,-0.3174,-0.3173,-0.3173,0,0,-0.3394,-0.3361,-0.3364,-0.3355,-0.3333,-0.3331,-0.3333,-0.3322,-0.3321,-0.3309,-0.331,-0.3304,-0.3288,-0.3281,-0.3263,-0.3268,-0.3294,-0.325,-0.3249,-0.3258,-0.3311,-0.3324,-0.3329,-0.3281,-0.3282,-0.3282,-0.3312,0,-0.3429,-0.343,-0.3406,-0.3414,-0.3411,-0.3381,-0.3383,-0.3369,-0.3354,-0.335,-0.3334,-0.3329,-0.3309,-0.3304,-0.3307,-0.329,-0.3304,-0.3288,-0.3282,-0.3282,-0.3286,-0.3333,-0.3347,-0.3376,-0.3316,-0.3316,-0.3317,0,-0.3469,-0.3459,-0.3466,-0.3442,-0.344,-0.3442,-0.3429,-0.3426,-0.341,-0.3398,-0.339,-0.3369,-0.337,-0.3349,-0.3348,-0.3338,-0.3334,-0.3325,-0.3325,-0.3324,-0.3301,-0.3333,-0.3385,-0.3389,-0.3322,-0.3322,-0.3321,0,-0.3516,-0.3504,-0.3506,-0.3499,-0.3472,-0.3474,-0.3462,-0.3445,-0.344,-0.3429,-0.3425,-0.3415,-0.3409,-0.3401,-0.3379,-0.3366,-0.3381,-0.3358,-0.3371,-0.3372,-0.3376,-0.3376,-0.3427,-0.3374,-0.3374,-0.3374,-0.3374,0,-0.3557,-0.3562,-0.3526,-0.3528,-0.3533,-0.3505,-0.3511,-0.3496,-0.3481,-0.3479,-0.3453,-0.3451,-0.3422,-0.3417,-0.3399,-0.3401,-0.3399,-0.339,-0.3385,-0.3392,-0.3393,-0.3389,-0.3386,-0.3375,-0.3375,-0.3374,-0.3374,0,-0.361,-0.3586,-0.3586,-0.356,-0.3553,-0.3558,-0.3535,-0.3535,-0.3518,-0.3516,-0.3513,-0.3487,-0.348,-0.3456,-0.3444,-0.3432,-0.3439,-0.343,-0.3444,-0.3441,-0.3455,-0.3454,-0.3505,-0.351,-0.3454,-0.3455,-0.3456,0,-0.3637,-0.3641,-0.3614,-0.361,-0.3599,-0.3594,-0.3588,-0.3561,-0.3555,-0.3536,-0.3539,-0.3529,-0.352,-0.3511,-0.349,-0.348,-0.347,-0.3489,-0.3469,-0.3475,-0.347,-0.347,-0.347,-0.3494,-0.3494,-0.3495,-0.3496,0,-0.3688,-0.3676,-0.3668,-0.3655,-0.3648,-0.3637,-0.3625,-0.3624,-0.3593,-0.3588,-0.358,-0.3573,-0.3559,-0.355,-0.3537,-0.3525,-0.3505,-0.3502,-0.3504,-0.3511,-0.3519,-0.3514,-0.3456,-0.3501,-0.35,-0.35,-0.35,-0.35,-0.3729,-0.373,-0.3711,-0.3702,-0.3689,-0.3678,-0.3676,-0.3658,-0.3651,-0.3637,-0.3621,-0.3615,-0.3597,-0.3577,-0.3567,-0.3561,-0.355,-0.3554,-0.3555,-0.3556,-0.3559,-0.352,-0.3559,-0.3559,-0.3558,-0.3558,-0.3558,0,-0.3778,-0.3764,-0.3756,-0.3739,-0.3732,-0.3713,-0.3697,-0.3693,-0.3687,-0.3672,-0.3664,-0.3654,-0.3644,-0.3623,-0.3611,-0.3611,-0.3601,-0.3609,-0.3608,-0.3606,-0.357,-0.3569,-0.3617,-0.3617,-0.3617,-0.3617,-0.3617,-0.3617,-0.3803,-0.3803,-0.3788,-0.3781,-0.3767,-0.376,-0.3753,-0.3742,-0.3729,-0.3719,-0.3711,-0.3696,-0.3678,-0.3665,-0.3656,-0.3649,-0.3646,-0.3656,-0.3647,-0.3614,-0.3609,-0.3603,-0.3602,-0.3656,-0.3656,-0.3684,-0.3684,-0.3684]}]]